一网星座-0644星 (ONEWEB-0644)

导读 | 豆包AI

ONEWEB-0644是英国OneWeb(一网)星座的低轨通信卫星,于2023年3月9日发射入轨。OneWeb星座旨在构建全球覆盖的高速低延迟卫星互联网,为偏远地区提供宽带接入服务。作为该星座组网卫星之一,ONEWEB-0644运行在约1200公里近地轨道,属于OneWeb第一代648颗卫星组网计划,助力OneWeb完成全球卫星互联网的商业部署,推动全球空天地一体化通信网络建设。

基本信息
目录编号:
55808
目录名称:
ONEWEB-0644
国际标识:
2023-029N
轨道中心:
EARTH
卫星名称:
一网星座-0644星
卫星全名:
一网星座-0644星 (ONEWEB-0644)
卫星状态:
在轨 (已飞行1122 天)
发射日期:
2023-03-09 UTC
国别 :
英国 (GB)
星等 :
--
轨道信息
数据来源 国际轨道数据 AOE轨道数据
星历时间 2026-04-03T23:23:39+0800
9小时前
查看轨道信息
2026-04-02T10:00:00+0800
1天前
查看轨道信息
半长轴 7563.899km 7563.895km
偏心率 0.0002094 0.0001793
轨道倾角 87.918° 87.916°
近地点辐角 80.138° 90.877°
升交点赤经 319.846° 320.159°
平近点角 279.999° 71.016°
近地点 1184.178km 1184.401km
远地点 1187.346km 1187.115km
周期 109.113分钟 109.113分钟
每日圈数 13.197273 13.197285
详细信息
平衡模式:
三轴稳定
覆盖范围:
全球
运营商:
一网卫星公司
运营商所在国:
英国
制造商(研发单位):
一网卫星公司
制造商所在国:
英国
使用方式:
暂无
卫星简介
OneWeb卫星网络由648颗重约125公斤的微型卫星组成,运行在1200公里的轨道上。 每颗卫星都能够提供至少每秒8千兆位的吞吐量,以使用其高吞吐量的Ku频段有效载荷为家庭和移动平台提供互联网接入。该卫星仍在工作。
2D轨道图
3D轨道图
轨道高度分析图
轨道倾角分析图
轨道综合分析图
查看轨道综合分析图